�N����,����,�~����,�C��,���x,�C��,����,���ϕ���,�ő�u�ԕ���,�ő厞����,���˗�,�I�_���x,�n�����x,�ő啗���N��,DTYPE
"17/07/07","00:10",0.0,22.8,89.4,1006.0,328.2,1.8,3.4,331.2,0.00,21.0,25.2,"00:05:44",1
"17/07/07","00:20",0.0,22.9,89.1,1006.0,327.0,2.3,4.0,329.8,0.00,21.0,24.9,"00:10:08",1
"17/07/07","00:30",0.0,22.9,89.0,1006.0,329.1,1.8,3.1,333.1,0.00,21.0,24.9,"00:27:44",1
"17/07/07","00:40",0.0,22.9,88.9,1006.2,319.9,1.7,2.4,321.2,0.00,21.0,25.0,"00:30:56",1
"17/07/07","00:50",0.0,22.9,89.0,1006.2,319.4,1.7,2.4,319.8,0.00,21.0,24.8,"00:40:56",1
"17/07/07","01:00",0.0,22.8,89.2,1006.2,331.2,1.6,2.6,328.0,0.00,21.0,24.9,"00:54:24",1
"17/07/07","01:10",0.0,22.8,89.6,1006.2,324.7,2.0,2.8,345.0,0.00,21.0,24.9,"01:00:40",1
"17/07/07","01:20",0.0,22.8,89.5,1006.4,331.8,1.6,2.8,327.3,0.00,21.0,24.7,"01:10:48",1
"17/07/07","01:30",0.0,22.9,89.8,1006.4,330.1,1.8,2.8,332.4,0.00,21.2,24.7,"01:21:04",1
"17/07/07","01:40",0.0,23.0,89.3,1006.2,332.8,1.7,3.1,343.3,0.00,21.2,24.6,"01:37:36",1
"17/07/07","01:50",0.0,23.0,89.1,1006.2,334.0,1.7,2.7,332.8,0.00,21.1,24.7,"01:43:04",1
"17/07/07","02:00",0.0,22.9,89.2,1006.2,324.9,2.1,3.2,331.7,0.00,21.1,24.7,"01:55:20",1
"17/07/07","02:10",0.0,23.0,88.8,1006.0,322.5,2.0,3.7,334.3,0.00,21.1,24.7,"02:03:12",1
"17/07/07","02:20",0.0,23.1,88.5,1006.4,329.6,1.7,2.8,328.7,0.00,21.1,24.8,"02:11:52",1
"17/07/07","02:30",0.0,23.0,88.0,1006.0,339.4,1.7,3.1,331.9,0.00,20.9,24.5,"02:28:08",1
"17/07/07","02:40",0.0,22.9,87.9,1006.2,341.1,1.3,2.8,333.7,0.00,20.8,24.5,"02:31:52",1
"17/07/07","02:50",0.0,22.9,88.1,1006.0,334.5,1.3,2.6,341.4,0.00,20.9,24.4,"02:45:20",1
"17/07/07","03:00",0.0,22.8,88.3,1006.4,322.4,1.3,2.2,330.6,0.00,20.8,24.7,"02:59:04",1
"17/07/07","03:10",0.0,22.8,88.5,1006.2,327.8,1.5,2.4,347.1,0.00,20.8,24.6,"03:08:32",1
"17/07/07","03:20",0.0,22.7,88.7,1006.0,332.9,1.5,2.5,325.9,0.00,20.8,24.3,"03:16:56",1
"17/07/07","03:30",0.0,22.6,88.9,1006.0,323.1,1.5,2.4,319.4,0.00,20.7,24.4,"03:22:32",1
"17/07/07","03:40",0.0,22.4,89.3,1006.4,301.1,0.8,1.6,331.7,0.00,20.6,24.5,"03:36:32",1
"17/07/07","03:50",0.0,22.2,89.9,1006.4,289.5,0.8,1.2,297.3,0.00,20.5,24.3,"03:49:04",1
"17/07/07","04:00",0.0,22.1,90.2,1006.2,328.8,1.3,2.1,336.5,0.00,20.5,24.3,"03:54:40",1
"17/07/07","04:10",0.0,22.2,90.3,1006.2,330.1,2.0,3.2,337.8,0.00,20.6,24.2,"04:06:16",1
"17/07/07","04:20",0.0,22.2,90.5,1006.0,322.6,1.7,2.7,329.6,0.00,20.6,24.2,"04:11:44",1
"17/07/07","04:30",0.0,22.1,90.5,1006.2,316.4,1.8,2.9,325.0,0.00,20.5,24.2,"04:25:28",1
"17/07/07","04:40",0.0,22.1,90.6,1006.7,309.7,1.2,2.2,331.3,0.00,20.5,24.2,"04:39:28",1
"17/07/07","04:50",0.0,22.2,90.6,1006.4,320.1,2.1,3.6,326.9,0.00,20.6,24.1,"04:41:36",1
"17/07/07","05:00",0.0,22.2,90.5,1006.2,322.8,2.0,3.3,321.2,0.00,20.6,24.2,"04:55:44",1
"17/07/07","05:10",0.0,22.1,90.6,1006.2,323.5,1.6,2.5,339.6,0.00,20.5,23.9,"05:03:12",1
"17/07/07","05:20",0.0,22.1,90.7,1006.0,320.5,1.7,2.5,332.2,0.00,20.5,23.7,"05:12:00",1
"17/07/07","05:30",0.0,22.1,90.7,1006.7,326.8,1.3,2.7,339.7,0.00,20.5,24.0,"05:22:56",1
"17/07/07","05:40",0.0,22.3,90.5,1006.4,318.1,1.0,1.6,322.5,0.01,20.7,24.0,"05:35:12",1
"17/07/07","05:50",0.0,22.5,90.7,1006.4,316.5,1.2,1.8,318.2,0.02,20.9,23.9,"05:47:28",1
"17/07/07","06:00",0.0,22.7,90.7,1006.4,329.6,1.1,1.6,331.8,0.02,21.1,23.8,"05:50:56",1
"17/07/07","06:10",0.0,22.8,90.5,1006.4,312.8,1.1,1.6,312.5,0.03,21.2,23.9,"06:02:16",1
"17/07/07","06:20",0.0,23.1,90.4,1006.2,316.8,1.1,1.7,327.6,0.04,21.5,24.2,"06:14:08",1
"17/07/07","06:30",0.0,23.5,89.8,1006.4,321.0,0.8,1.3,335.0,0.04,21.8,24.2,"06:25:20",1
"17/07/07","06:40",0.0,23.7,88.5,1006.4,327.6,0.7,1.3,325.6,0.05,21.7,24.0,"06:36:16",1
"17/07/07","06:50",0.0,24.4,85.9,1006.4,316.4,0.8,1.6,332.6,0.08,21.9,24.1,"06:41:12",1
"17/07/07","07:00",0.0,24.9,83.1,1006.2,284.6,0.5,0.8,4.9,0.10,21.9,24.0,"06:59:20",1
"17/07/07","07:10",0.0,25.8,80.9,1006.2,341.3,0.5,0.9,306.7,0.16,22.3,24.4,"07:04:56",1
"17/07/07","07:20",0.0,26.6,78.3,1006.2,20.4,0.2,1.0,348.6,0.18,22.6,24.2,"07:10:40",1
"17/07/07","07:30",0.0,25.9,79.8,1006.2,341.9,0.7,1.7,343.0,0.12,22.2,24.2,"07:24:24",1
"17/07/07","07:40",0.0,26.3,78.7,1005.5,35.8,0.2,1.1,22.9,0.14,22.3,24.4,"07:30:16",1
"17/07/07","07:50",0.0,26.1,78.0,1005.7,286.2,0.3,1.0,340.5,0.12,22.0,24.4,"07:43:04",1
"17/07/07","08:00",0.0,26.5,76.8,1005.7,143.9,0.1,0.5,137.4,0.15,22.1,24.5,"07:57:04",1
"17/07/07","08:10",0.0,27.2,76.3,1005.2,139.1,0.3,0.9,180.4,0.20,22.7,24.6,"08:04:24",1
"17/07/07","08:20",0.0,27.7,75.0,1004.8,359.3,0.5,1.3,345.8,0.25,22.9,24.8,"08:14:48",1
"17/07/07","08:30",0.0,27.9,72.3,1005.2,27.8,0.7,1.4,352.9,0.28,22.5,25.0,"08:27:28",1
"17/07/07","08:40",0.0,28.7,71.1,1005.5,31.6,0.3,1.2,348.8,0.30,23.0,25.2,"08:38:48",1
"17/07/07","08:50",0.0,28.9,72.2,1006.0,122.8,0.6,1.2,154.2,0.32,23.4,25.1,"08:46:48",1
"17/07/07","09:00",0.0,28.9,71.0,1006.0,129.8,1.0,3.4,121.1,0.35,23.2,25.3,"08:58:16",1
"17/07/07","09:10",0.0,29.0,70.4,1006.4,163.0,1.1,2.4,144.3,0.37,23.1,25.6,"09:08:48",1
"17/07/07","09:20",0.0,29.7,68.3,1006.7,150.4,1.0,2.0,190.6,0.41,23.3,25.7,"09:11:04",1
"17/07/07","09:30",0.0,29.7,68.9,1006.9,160.0,1.2,2.9,210.6,0.42,23.4,25.8,"09:26:00",1
"17/07/07","09:40",0.0,29.9,66.6,1006.7,161.6,1.3,2.7,171.7,0.46,23.0,26.0,"09:31:04",1
"17/07/07","09:50",0.0,30.0,66.7,1006.9,157.8,1.5,2.9,119.6,0.44,23.2,26.1,"09:40:02",1
"17/07/07","10:00",0.0,29.2,69.4,1006.7,181.2,1.2,3.1,208.4,0.27,23.1,26.3,"09:55:52",1
"17/07/07","10:10",0.0,30.2,69.2,1006.7,157.3,1.2,2.6,178.1,0.38,24.0,26.7,"10:01:36",1
"17/07/07","10:20",0.0,29.8,67.8,1006.4,152.7,1.7,3.6,187.4,0.44,23.2,26.6,"10:14:32",1
"17/07/07","10:30",0.0,30.1,67.8,1006.4,160.0,1.7,4.0,201.6,0.46,23.5,26.8,"10:29:20",1
"17/07/07","10:40",0.0,29.6,67.0,1006.0,162.9,1.6,3.1,181.3,0.28,22.9,26.9,"10:39:52",1
"17/07/07","10:50",0.0,29.0,69.1,1006.0,198.3,2.0,3.3,206.4,0.20,22.8,27.0,"10:40:16",1
"17/07/07","11:00",0.0,30.5,66.9,1006.0,173.0,1.2,3.1,221.5,0.39,23.7,27.2,"10:50:16",1
"17/07/07","11:10",0.0,30.6,65.2,1006.0,178.7,2.1,3.9,222.8,0.50,23.4,27.3,"11:00:08",1
"17/07/07","11:20",0.0,29.4,68.4,1006.0,163.2,1.6,2.9,205.5,0.20,23.0,27.2,"11:12:24",1
"17/07/07","11:30",0.0,29.2,69.5,1005.5,165.4,1.2,2.8,179.9,0.16,23.1,27.5,"11:23:04",1
"17/07/07","11:40",0.0,29.8,67.6,1005.2,153.5,1.2,2.5,215.1,0.22,23.2,27.5,"11:38:32",1
"17/07/07","11:50",0.0,29.8,69.6,1005.2,180.8,1.7,3.5,198.6,0.26,23.7,27.4,"11:40:40",1
"17/07/07","12:00",0.0,30.5,63.0,1005.2,205.9,1.5,4.1,220.2,0.40,22.7,27.3,"11:52:40",1
"17/07/07","12:10",0.0,31.0,65.2,1005.5,226.9,0.8,1.9,175.0,0.38,23.7,27.4,"12:07:44",1
"17/07/07","12:20",0.0,29.5,67.2,1005.0,168.4,1.8,3.3,139.3,0.15,22.8,27.5,"12:16:16",1
"17/07/07","12:30",0.0,30.1,66.4,1004.8,173.5,1.7,2.7,181.7,0.27,23.2,27.7,"12:20:08",1
"17/07/07","12:40",0.0,31.6,63.3,1005.0,194.3,1.3,3.3,211.3,0.60,23.8,27.8,"12:39:28",1
"17/07/07","12:50",0.0,31.5,61.3,1005.2,225.6,1.5,3.4,211.4,0.57,23.2,27.7,"12:40:08",1
"17/07/07","13:00",0.0,31.2,61.3,1005.2,248.8,1.3,3.3,167.9,0.46,22.9,28.0,"12:53:12",1
"17/07/07","13:10",0.0,31.3,59.4,1005.5,157.7,0.5,1.7,235.5,0.26,22.5,27.9,"13:09:12",1
"17/07/07","13:20",0.0,31.9,61.5,1005.2,218.4,1.1,2.4,211.0,0.45,23.6,28.1,"13:12:56",1
"17/07/07","13:30",0.0,32.0,62.1,1005.2,228.1,1.2,3.9,210.5,0.45,23.9,28.3,"13:20:56",1
"17/07/07","13:40",0.0,32.6,60.3,1005.2,229.7,1.1,2.5,340.6,0.57,23.9,28.2,"13:35:12",1
"17/07/07","13:50",0.0,32.3,61.0,1005.2,222.5,1.0,3.3,225.0,0.47,23.9,28.2,"13:43:20",1
"17/07/07","14:00",0.0,32.9,58.5,1005.5,212.5,1.0,3.9,227.3,0.49,23.7,28.0,"13:50:56",1
"17/07/07","14:10",0.0,33.4,57.7,1005.5,219.0,1.0,2.1,353.5,0.55,24.0,28.1,"14:02:56",1
"17/07/07","14:20",0.0,32.4,56.8,1005.0,256.3,1.2,3.4,225.2,0.39,22.8,28.5,"14:13:12",1
"17/07/07","14:30",0.0,33.3,55.3,1005.2,195.4,1.2,3.3,215.3,0.46,23.2,28.4,"14:26:16",1
"17/07/07","14:40",0.0,32.7,53.9,1005.0,245.0,1.3,5.1,224.3,0.37,22.2,28.5,"14:32:08",1
"17/07/07","14:50",0.0,33.1,55.0,1004.8,220.8,1.5,3.5,198.1,0.49,22.9,28.6,"14:43:36",1
"17/07/07","15:00",0.0,33.4,53.8,1004.8,233.9,1.5,4.0,228.8,0.48,22.8,28.7,"14:55:28",1
"17/07/07","15:10",0.0,33.3,53.0,1004.5,224.1,1.2,3.4,244.4,0.45,22.5,28.9,"15:04:16",1
"17/07/07","15:20",0.0,33.7,53.5,1004.8,219.1,1.2,3.2,211.6,0.43,23.0,29.0,"15:14:32",1
"17/07/07","15:30",0.0,33.2,52.2,1004.5,254.1,1.7,5.0,230.4,0.43,22.1,29.2,"15:21:20",1
"17/07/07","15:40",0.0,33.4,51.6,1004.5,283.1,1.0,3.3,329.7,0.41,22.1,28.9,"15:36:08",1
"17/07/07","15:50",0.0,33.3,53.9,1004.5,221.5,1.5,4.0,212.2,0.41,22.7,29.1,"15:49:36",1
"17/07/07","16:00",0.0,33.0,56.1,1004.3,223.7,2.3,4.9,223.3,0.40,23.1,29.4,"15:58:40",1
"17/07/07","16:10",0.0,32.8,56.7,1003.6,233.6,2.3,5.4,207.4,0.37,23.1,29.3,"16:04:16",1
"17/07/07","16:20",0.0,32.8,58.2,1004.3,266.9,1.3,3.4,227.2,0.28,23.5,29.4,"16:12:16",1
"17/07/07","16:30",0.0,31.6,60.7,1004.1,312.2,1.8,4.4,211.9,0.22,23.1,29.3,"16:21:20",1
"17/07/07","16:40",0.0,31.3,60.2,1004.1,357.5,2.0,4.5,353.8,0.15,22.7,29.2,"16:32:16",1
"17/07/07","16:50",0.0,30.0,61.9,1002.9,70.4,1.5,3.4,6.4,0.02,21.9,29.1,"16:41:12",1
"17/07/07","17:00",0.0,29.3,64.2,1002.6,97.4,0.8,2.1,90.7,0.00,21.9,29.2,"16:52:24",1
"17/07/07","17:10",0.0,28.9,67.1,1002.4,17.1,1.1,3.6,344.6,0.00,22.2,29.1,"17:04:56",1
"17/07/07","17:20",0.0,28.7,70.3,1002.4,103.7,0.8,2.6,167.4,0.00,22.8,29.0,"17:18:00",1
"17/07/07","17:30",0.0,27.2,77.0,1003.4,332.8,2.6,6.3,347.1,0.00,22.9,28.4,"17:26:00",1
"17/07/07","17:40",0.0,25.4,84.4,1003.6,195.8,1.3,3.1,336.2,0.01,22.6,27.2,"17:35:20",1
"17/07/07","17:50",0.0,25.7,87.4,1003.4,285.5,1.1,2.6,225.7,0.08,23.5,27.2,"17:40:32",1
"17/07/07","18:00",0.0,26.6,86.1,1003.4,211.9,0.6,1.6,198.8,0.16,24.1,27.3,"17:53:38",1
"17/07/07","18:10",0.0,26.4,85.9,1003.4,182.5,1.1,1.9,171.9,0.12,23.9,27.5,"18:00:48",1
"17/07/07","18:20",0.0,26.3,84.4,1004.3,194.2,1.0,3.1,174.4,0.08,23.5,27.4,"18:18:16",1
"17/07/07","18:30",0.0,25.9,85.8,1004.3,175.9,1.1,2.6,198.0,0.03,23.4,27.5,"18:20:48",1
"17/07/07","18:40",0.0,25.6,87.0,1004.5,149.1,0.7,1.8,185.9,0.01,23.3,27.5,"18:30:08",1
"17/07/07","18:50",0.0,25.5,87.7,1004.3,220.6,0.5,1.6,184.7,0.01,23.3,27.4,"18:40:32",1
"17/07/07","19:00",0.0,25.5,88.0,1004.5,287.3,0.7,0.9,292.1,0.01,23.4,27.4,"18:54:56",1
"17/07/07","19:10",0.0,25.5,88.2,1004.8,319.4,0.8,2.2,328.0,0.01,23.4,27.2,"19:09:52",1
"17/07/07","19:20",0.0,25.5,89.2,1005.0,329.1,1.3,1.8,321.6,0.00,23.6,27.1,"19:10:16",1
"17/07/07","19:30",0.0,25.3,89.3,1005.0,322.1,1.3,2.2,317.2,0.00,23.5,26.9,"19:26:32",1
"17/07/07","19:40",0.0,25.2,90.2,1005.0,304.1,0.6,1.2,341.4,0.00,23.5,27.2,"19:38:40",1
"17/07/07","19:50",0.0,25.0,90.7,1005.2,310.0,1.0,1.2,345.6,0.00,23.4,27.1,"19:40:08",1
"17/07/07","20:00",0.0,24.9,91.2,1005.2,307.0,0.8,1.3,328.4,0.00,23.4,27.1,"19:58:24",1
"17/07/07","20:10",0.0,24.8,91.6,1005.2,312.8,0.8,1.3,330.5,0.00,23.4,27.1,"20:04:40",1
"17/07/07","20:20",0.0,24.7,91.9,1005.2,317.4,0.8,1.8,338.8,0.00,23.3,26.7,"20:15:04",1
"17/07/07","20:30",0.0,24.7,92.1,1005.5,327.9,1.0,1.4,332.7,0.00,23.4,26.8,"20:25:28",1
"17/07/07","20:40",0.0,24.6,92.3,1005.5,306.3,1.0,1.6,313.4,0.00,23.3,26.6,"20:37:20",1
"17/07/07","20:50",0.0,24.5,92.5,1005.7,302.8,1.0,1.9,327.2,0.00,23.2,26.7,"20:41:52",1
"17/07/07","21:00",0.0,24.5,92.8,1005.5,316.8,1.2,2.4,325.1,0.00,23.3,26.5,"20:53:28",1
"17/07/07","21:10",0.0,24.3,92.9,1005.7,302.4,1.0,1.6,324.9,0.00,23.1,26.6,"21:06:48",1
"17/07/07","21:20",0.0,24.3,93.1,1006.0,324.7,1.0,1.2,334.5,0.00,23.2,26.5,"21:11:12",1
"17/07/07","21:30",0.0,24.2,93.2,1006.0,272.3,0.5,0.8,295.7,0.00,23.1,26.3,"21:22:16",1
"17/07/07","21:40",0.0,24.0,93.3,1006.0,279.8,0.8,1.1,268.2,0.00,22.9,26.4,"21:34:32",1
"17/07/07","21:50",0.0,24.0,93.5,1005.7,308.6,1.1,1.8,326.6,0.00,22.9,26.2,"21:48:40",1
"17/07/07","22:00",0.0,23.9,93.5,1005.7,313.0,1.0,2.0,339.9,0.00,22.8,26.2,"21:52:00",1
"17/07/07","22:10",0.0,23.8,93.7,1006.0,240.9,0.5,1.3,271.6,0.00,22.8,26.2,"22:00:48",1
"17/07/07","22:20",0.0,23.7,94.0,1006.0,296.8,1.1,1.7,316.5,0.00,22.7,26.2,"22:15:20",1
"17/07/07","22:30",0.0,23.7,94.0,1006.2,307.5,1.6,2.2,318.7,0.00,22.7,26.1,"22:26:24",1
"17/07/07","22:40",0.0,23.7,94.2,1006.2,335.1,1.2,2.2,330.2,0.00,22.8,26.0,"22:33:36",1
"17/07/07","22:50",0.0,23.6,94.1,1006.2,310.9,1.1,1.7,335.5,0.00,22.6,26.2,"22:44:32",1
"17/07/07","23:00",0.0,23.5,94.1,1006.4,293.4,1.1,1.4,317.1,0.00,22.5,25.8,"22:52:24",1
"17/07/07","23:10",0.0,23.3,94.2,1006.2,309.5,1.2,1.8,323.4,0.00,22.4,25.7,"23:03:44",1
"17/07/07","23:20",0.0,23.3,94.5,1006.2,313.6,1.5,2.0,323.3,0.00,22.4,25.6,"23:16:08",1
"17/07/07","23:30",0.0,23.2,94.5,1006.4,286.7,1.3,1.9,321.8,0.00,22.3,25.5,"23:21:12",1
"17/07/07","23:40",0.0,23.1,94.5,1006.0,303.5,1.3,2.1,320.8,0.00,22.2,25.7,"23:39:12",1
"17/07/07","23:50",0.0,23.0,94.5,1006.4,287.6,1.2,1.7,320.9,0.00,22.1,25.4,"23:40:16",1
"17/07/07","24:00",0.0,22.9,94.6,1006.2,313.4,1.6,1.9,316.9,0.00,22.0,25.6,"23:52:16",1
